User: anonymous   Login
Location: Unspecified
(0.0000°N, 0.0000°E)
Time: 12:44:39
(UTC+02:00)
Language:

Resurs 01 Rocket - Orbit

View from above orbital plane
View from above orbital plane
View from above satellite
View from above satellite

Ground track
Ground track

The orbit data is extracted from the following two-line orbital elements,

1 23343U 94074B   16150.56597810  .00000021  00000-0  10703-4 0  9991
2 23343  98.1945 176.7914 0006103 213.1843 307.7924 14.76657070160215
Epoch (UTC): 29 May 2016 13:35:00
Eccentricity: 0.0006103
inclination: 98.1945°
perigee height: 635 km
apogee height: 644 km
right ascension of ascending node: 176.7914°
argument of perigee: 213.1843°
revolutions per day: 14.76657070
mean anomaly at epoch: 307.7924°
orbit number at epoch: 16021

The dashed part of the orbit path shows where the satellite is in the earth's shadow,  

DLR